This is the latest recevied weather packets stored in our database for station/object YT6PT-8. If no packets are shown the sender has not sent any weather packets the latest 10 day(s).
| Time | Temp. | Humidity | Pressure | Rain* | Wind** | Luminosity | Snow |
|---|---|---|---|---|---|---|---|
| 1787772050 | 19.44° C | 77% | 1010.5 hPa | 0 mm | 0.89 m/s, 338° | - | - |
| 1787771748 | 20° C | 77% | 1010.4 hPa | 0 mm | 1.79 m/s, 338° | - | - |
| 1787771434 | 20° C | 77% | 1010.4 hPa | 0 mm | 1.79 m/s, 338° | - | - |
| 1787771132 | 20° C | 76% | 1010.4 hPa | 0 mm | 2.24 m/s, 338° | - | - |
| 1787770832 | 20° C | 76% | 1010.4 hPa | 0 mm | 2.24 m/s, 338° | - | - |
| 1787770532 | 20° C | 76% | 1010.3 hPa | 0 mm | 1.79 m/s, 338° | - | - |
| 1787770232 | 20° C | 76% | 1010.3 hPa | 0 mm | 1.79 m/s, 338° | - | - |
| 1787769932 | 20° C | 76% | 1010.4 hPa | 0 mm | 2.24 m/s, 338° | - | - |
| 1787769650 | 20° C | 76% | 1010.4 hPa | 0 mm | 2.24 m/s, 338° | - | - |
| 1787769354 | 20° C | 76% | 1010.4 hPa | 0 mm | 1.79 m/s, 338° | - | - |
| 1787769051 | 20° C | 76% | 1010.4 hPa | 0 mm | 1.79 m/s, 338° | - | - |
| 1787768750 | 20° C | 76% | 1010.3 hPa | 0 mm | 1.79 m/s, 338° | - | - |
| 1787768451 | 20° C | 76% | 1010.3 hPa | 0 mm | 1.79 m/s, 338° | - | - |
| 1787768150 | 20° C | 76% | 1010.2 hPa | 0 mm | 1.79 m/s, 338° | - | - |
| 1787767833 | 20° C | 76% | 1010.2 hPa | 0 mm | 1.79 m/s, 338° | - | - |
| 1787767550 | 20.56° C | 76% | 1010.2 hPa | 0 mm | 1.34 m/s, 338° | - | - |
| 1787767250 | 20.56° C | 76% | 1010.2 hPa | 0 mm | 1.34 m/s, 338° | - | - |
| 1787766953 | 20.56° C | 75% | 1009.9 hPa | 0 mm | 1.34 m/s, 338° | - | - |
| 1787766633 | 20.56° C | 75% | 1009.9 hPa | 0 mm | 1.34 m/s, 338° | - | - |
| 1787766332 | 20.56° C | 75% | 1010 hPa | 0 mm | 2.24 m/s, 338° | - | - |
| 1787766036 | 20.56° C | 75% | 1010 hPa | 0 mm | 2.24 m/s, 338° | - | - |
| 1787765732 | 20.56° C | 74% | 1010 hPa | 0 mm | 1.79 m/s, 0° | - | - |
| 1787765432 | 20.56° C | 74% | 1010 hPa | 0 mm | 1.79 m/s, 0° | - | - |
| 1787765153 | 20.56° C | 74% | 1009.7 hPa | 0 mm | 1.34 m/s, 0° | - | - |
| 1787764857 | 20.56° C | 74% | 1009.7 hPa | 0 mm | 1.34 m/s, 0° | - | - |
* Rain latest hour (hover to see other rain measurements)
** Current wind speed in m/s (hover to see current wind gust speed)